Location: Gombori
(14.9797°N, 2.9419°W)
Time: 21:33:19
(UTC+00:00)

METEOR 2-17 DEB - Pass Details

Date: 07 June 2022
Orbit: 896 x 935 km, 82.5° (Epoch: 02 July)

Event Time Altitude Azimuth Distance (km) Brightness Sun altitude
Rises 19:23:03 0° 31° (NNE) 3,503 ? -10.1°
Reaches altitude 10° 19:28:07 10° 69° (ENE) 2,564 ? -11.2°
Maximum altitude 19:29:13 11° 80° (E) 2,528 ? -11.5°
Enters shadow 19:29:56 10° 88° (E) 2,544 ? -11.6°
